Brunswick, NC

4:33 AM EST on February 08, 2016 (GMT -0500)
Columbus County Municipal

Weather History for KCPC - February, 2013

Change the Weather History Date:

Sunday, February 24, 2013

  Actual Average (KLBT) Record (KLBT)
Temperature  
Mean Temperature 38 °F 49 °F  
Max Temperature 54 °F 60 °F 74 °F (2012)
Min Temperature 22 °F 37 °F 24 °F (2009)
Degree Days  
Heating Degree Days 27 16  
Month to date heating degree days 448  
Since 1 July heating degree days 2167  
Cooling Degree Days 0 0  
Month to date cooling degree days 0  
Year to date cooling degree days 1  
Moisture  
Dew Point 28 °F    
Average Humidity 84    
Maximum Humidity 100    
Minimum Humidity 45    
Precipitation  
Precipitation 0.01 in 0.11 in 0.75 in (2012)
Month to date precipitation 2.46  
Year to date precipitation 5.43  
Sea Level Pressure  
Sea Level Pressure 29.92 in    
Wind  
Wind Speed 2 mph (West)    
Max Wind Speed 8 mph    
Max Gust Speed -    
Visibility 8 miles    
Events      
T = Trace of Precipitation, MM = Missing Value Source: NWS Daily Summary

Daily Weather History Graph

Daily Weather History Graph

Search for Another Location

Airport or City:

Trip Planner

Search our weather history database for the weather conditions in past years. The results will help you decide how hot, cold, wet, or windy it might be!

Date:

Astronomy

Feb. 24, 2013 Rise Set
Actual Time 6:49 AM EST 6:06 PM EST
Civil Twilight 6:24 AM EST 6:32 PM EST
Nautical Twilight 5:55 AM EST 7:01 PM EST
Astronomical Twilight 5:26 AM EST 7:30 PM EST
Moon 5:16 PM EST (2/24) 5:44 AM EST (2/24)
Length of Visible Light 12h 08m
Length of Day
11h 17m
Waxing Gibbous, 99% of the Moon is Illuminated
Feb 24
Waxing Gibbous
Feb 25
Full
Mar 4
Last Quarter
Mar 11
New
Mar 19
First Quarter

Hourly Weather History & Observations

Time (EST) Temp. Windchill Dew Point Humidity Pressure Visibility Wind Dir Wind Speed Gust Speed Precip Events Conditions
12:15 AM 22.5 °F - 22.5 °F 100% 29.83 in 4.0 mi Calm Calm - 0.01 in   Overcast
12:35 AM 22.5 °F - 22.5 °F 100% 29.84 in 3.0 mi Calm Calm - 0.01 in   Overcast
12:55 AM 22.5 °F - 22.5 °F 100% 29.83 in 2.5 mi Calm Calm - 0.01 in   Overcast
1:15 AM 22.5 °F - 22.5 °F 100% 29.82 in 1.8 mi Calm Calm - N/A   Overcast
1:35 AM 22.5 °F - 22.5 °F 100% 29.83 in 2.0 mi Calm Calm - N/A   Overcast
1:55 AM 22.6 °F - 22.6 °F 100% 29.83 in 2.5 mi Calm Calm - N/A   Overcast
2:15 AM 22.6 °F - 22.6 °F 100% 29.82 in 3.0 mi Calm Calm - N/A   Overcast
2:35 AM 22.6 °F - 22.6 °F 100% 29.81 in 3.0 mi Calm Calm - N/A   Overcast
2:55 AM 22.8 °F - 22.8 °F 100% 29.82 in 3.0 mi Calm Calm - N/A   Overcast
3:15 AM 22.8 °F - 22.8 °F 100% 29.82 in 3.0 mi Calm Calm - N/A   Overcast
3:35 AM 22.8 °F 18.2 °F 22.8 °F 100% 29.82 in 3.0 mi West 3.5 mph - N/A   Overcast
3:55 AM 23.0 °F 18.4 °F 23.0 °F 100% 29.83 in 2.0 mi West 3.5 mph - N/A   Overcast
4:15 AM 23.0 °F 17.0 °F 23.0 °F 100% 29.83 in 2.5 mi WSW 4.6 mph - N/A   Light Freezing Rain
4:35 AM 23.0 °F 17.0 °F 23.0 °F 100% 29.83 in 3.0 mi West 4.6 mph - N/A   Light Freezing Rain
4:55 AM 23.0 °F 17.0 °F 23.0 °F 100% 29.84 in 10.0 mi West 4.6 mph - N/A   Overcast
5:15 AM 23.0 °F 17.0 °F 23.0 °F 100% 29.85 in 10.0 mi West 4.6 mph - N/A   Overcast
5:35 AM 23.0 °F - 22.8 °F 99% 29.85 in 10.0 mi Calm Calm - N/A   Overcast
5:55 AM 23.0 °F - 22.8 °F 99% 29.85 in 10.0 mi Calm Calm - N/A   Overcast
6:15 AM 23.0 °F - 23.0 °F 100% 29.85 in 10.0 mi Calm Calm - N/A   Overcast
6:35 AM 23.2 °F 16.0 °F 23.0 °F 99% 29.87 in 7.0 mi West 5.8 mph - N/A   Overcast
7:15 AM 23.4 °F 17.4 °F 23.0 °F 99% 29.89 in 1.2 mi West 4.6 mph - N/A   Overcast
7:35 AM 23.5 °F 17.6 °F 23.4 °F 99% 29.90 in 1.0 mi West 4.6 mph - N/A   Overcast
7:55 AM 23.5 °F 19.1 °F 23.4 °F 99% 29.91 in 1.0 mi West 3.5 mph - N/A   Overcast
8:15 AM 23.7 °F - 23.5 °F 99% 29.92 in 1.2 mi Calm Calm - N/A   Overcast
8:35 AM 23.9 °F 19.5 °F 23.7 °F 99% 29.93 in 2.5 mi West 3.5 mph - N/A   Overcast
8:55 AM 23.9 °F 16.8 °F 23.7 °F 99% 29.94 in 4.0 mi West 5.8 mph - N/A   Overcast
9:15 AM 24.1 °F - 23.9 °F 99% 29.95 in 5.0 mi Calm Calm - N/A   Overcast
9:35 AM 24.4 °F 20.1 °F 23.9 °F 98% 29.96 in 5.0 mi WNW 3.5 mph - N/A   Overcast
9:55 AM 24.4 °F 20.1 °F 23.9 °F 98% 29.96 in 7.0 mi West 3.5 mph - N/A   Overcast
10:15 AM 25.2 °F - 23.7 °F 94% 29.96 in 7.0 mi Calm Calm - N/A   Overcast
10:35 AM 25.5 °F 21.3 °F 23.0 °F 90% 29.96 in 10.0 mi West 3.5 mph - N/A   Overcast
10:55 AM 25.9 °F 21.7 °F 22.3 °F 86% 29.97 in 10.0 mi North 3.5 mph - N/A   Overcast
11:15 AM 26.2 °F 22.1 °F 21.9 °F 84% 29.97 in 10.0 mi West 3.5 mph - N/A   Overcast
11:35 AM 26.4 °F 20.9 °F 21.4 °F 81% 29.96 in 10.0 mi WNW 4.6 mph - N/A   Mostly Cloudy
11:55 AM 27.1 °F 23.2 °F 21.4 °F 79% 29.96 in 10.0 mi WNW 3.5 mph - N/A   Mostly Cloudy
12:15 PM 27.3 °F - 20.5 °F 75% 29.95 in 10.0 mi Calm Calm - N/A   Scattered Clouds
12:35 PM 27.5 °F 22.2 °F 18.7 °F 69% 29.94 in 10.0 mi NW 4.6 mph - N/A   Clear
12:55 PM 28.0 °F 24.2 °F 18.1 °F 66% 29.93 in 10.0 mi WSW 3.5 mph - N/A   Scattered Clouds
1:15 PM 28.0 °F 20.0 °F 16.5 °F 62% 29.93 in 10.0 mi WSW 8.1 mph - N/A   Scattered Clouds
1:35 PM 28.6 °F - 16.5 °F 61% 29.92 in 10.0 mi Calm Calm - N/A   Clear
1:55 PM 30.0 °F - 16.5 °F 57% 29.92 in 10.0 mi Calm Calm - N/A   Clear
2:15 PM 30.7 °F 27.3 °F 16.7 °F 56% 29.92 in 10.0 mi West 3.5 mph - N/A   Clear
2:35 PM 31.8 °F 27.3 °F 16.0 °F 52% 29.91 in 10.0 mi West 4.6 mph - N/A   Clear
2:55 PM 45.0 °F 40.6 °F 28.2 °F 52% 29.91 in 10.0 mi WSW 8.1 mph - N/A   Clear
3:15 PM 49.5 °F - 30.7 °F 49% 29.91 in 10.0 mi West 5.8 mph - N/A   Clear
3:35 PM 52.5 °F - 33.4 °F 48% 29.92 in 10.0 mi WSW 3.5 mph - N/A   Clear
3:55 PM 50.5 °F - 32.0 °F 49% 29.91 in 10.0 mi Calm Calm - N/A   Clear
4:15 PM 52.3 °F - 33.1 °F 48% 29.91 in 10.0 mi West 4.6 mph - N/A   Clear
4:35 PM 52.9 °F - 33.1 °F 47% 29.91 in 10.0 mi West 3.5 mph - N/A   Clear
4:55 PM 53.6 °F - 32.9 °F 45% 29.92 in 10.0 mi WSW 3.5 mph - N/A   Clear
5:15 PM 54.1 °F - 34.0 °F 47% 29.92 in 10.0 mi WSW 3.5 mph - N/A   Clear
5:35 PM 53.6 °F - 35.6 °F 51% 29.92 in 10.0 mi Calm Calm - N/A   Clear
5:55 PM 52.5 °F - 36.9 °F 55% 29.93 in 10.0 mi Calm Calm - N/A   Clear
6:15 PM 50.9 °F - 38.3 °F 62% 29.93 in 10.0 mi Calm Calm - N/A   Clear
6:35 PM 49.8 °F - 40.3 °F 70% 29.95 in 10.0 mi Calm Calm - N/A   Clear
6:55 PM 48.0 °F - 41.4 °F 78% 29.95 in 10.0 mi Calm Calm - N/A   Clear
7:15 PM 46.6 °F - 40.5 °F 79% 29.97 in 10.0 mi Calm Calm - N/A   Clear
7:35 PM 46.4 °F - 40.3 °F 79% 29.97 in 10.0 mi Calm Calm - N/A   Clear
7:55 PM 45.9 °F - 40.5 °F 81% 29.98 in 10.0 mi Calm Calm - N/A   Clear
8:15 PM 44.2 °F - 41.0 °F 88% 29.98 in 10.0 mi Calm Calm - N/A   Clear
8:35 PM 43.2 °F - 40.5 °F 90% 29.98 in 10.0 mi Calm Calm - N/A   Clear
8:55 PM 42.4 °F - 40.3 °F 92% 29.98 in 10.0 mi Calm Calm - N/A   Clear
9:15 PM 41.5 °F - 39.7 °F 93% 29.99 in 10.0 mi Calm Calm - N/A   Clear
9:35 PM 41.4 °F - 39.2 °F 92% 29.99 in 10.0 mi Calm Calm - N/A   Clear
9:55 PM 40.1 °F - 38.5 °F 94% 30.00 in 10.0 mi Calm Calm - N/A   Clear
10:15 PM 40.6 °F - 38.7 °F 93% 30.00 in 10.0 mi Calm Calm - N/A   Clear
10:35 PM 39.2 °F - 37.8 °F 95% 30.00 in 10.0 mi Calm Calm - N/A   Clear
10:55 PM 38.3 °F - 37.0 °F 95% 30.00 in 10.0 mi Calm Calm - N/A   Clear
11:15 PM 37.9 °F - 36.9 °F 96% 30.00 in 10.0 mi Calm Calm - N/A   Clear
11:35 PM 37.4 °F - 36.3 °F 96% 30.00 in 10.0 mi Calm Calm - N/A   Clear
11:55 PM 36.7 °F - 35.6 °F 96% 30.00 in 10.0 mi Calm Calm - N/A   Clear